Home   Weather   Belém   Past weeks

Flag for Brazil Past Weather in Belém, Pará, Brazil — Yesterday and Last 2 Weeks

Now
75 °F

Clear.


Feels Like: 74 °F
Forecast: 76 / 89 °F
Wind: 2 mph from Southeast

Location: Belem Aeroporto

Current Time: May 28, 2017 at 2:06:07 am

Latest Report: May 28, 2017 at 1:00 am


Visibility: 10 mi

Pressure: 29.95 "Hg

Humidity: 94%

Dew Point: 73 °F

Location of BelémLocation

Past Weather in Belém — Graph

°F

Belém Temperature Yesterday

Maximum temperature yesterday: 86 °F (at 12:00 pm)
Minimum temperature yesterday: 75 °F (at 4:00 am)
Average temperature yesterday: 79 °F

High & Low Weather Summary for the Past Weeks

 TemperatureHumidityPressure
High91 °F (May 13, 2:00 pm)100% (May 13, 6:00 am)30.01 "Hg (May 13, 6:00 am)
Low75 °F (May 13, 2:00 am)52% (May 13, 2:00 pm)29.74 "Hg (May 19, 4:00 pm)
Average80 °F83%29.88 "Hg
* Reported May 13 1:00 am — May 28 1:00 am, Belém. Weather by CustomWeather, © 2017

Note: Actual official high and low records may vary slightly from our data, if they occured in-between our weather recording intervals... More about our weather records

Advertising

Belém Weather History for the Previous 24 Hours

Scroll right to see more
 ConditionsComfort  
Time TempWeatherWind HumidityBarometerVisibility
1:00 am
Sun, May 28
75 °FClear.2 mph94%29.95 "Hg10 mi
12:00 am75 °FClear.3 mph89%30.01 "Hg10 mi
11:00 pm
Sat, May 27
75 °FClear.6 mph89%29.95 "Hg10 mi
10:00 pm75 °FClear.6 mph94%29.95 "Hg10 mi
9:00 pm77 °FThundershowers. Passing clouds.6 mph89%29.92 "HgN/A
8:00 pm77 °FThundershowers. Passing clouds.7 mph89%29.92 "HgN/A
7:00 pm75 °FThundershowers. Passing clouds.7 mph89%N/AN/A
6:00 pm77 °FScattered clouds.10 mph83%29.89 "HgN/A
5:00 pm77 °FScattered showers. Scattered clouds.9 mph83%N/AN/A
4:00 pm84 °FThunderstorms. Scattered clouds.3 mph74%29.86 "HgN/A
3:00 pm77 °FScattered showers. Scattered clouds.6 mph89%N/AN/A
2:00 pm81 °FLight rain. Partly sunny.7 mph89%29.92 "Hg3 mi
1:00 pm84 °FPartly sunny.6 mph74%29.95 "HgN/A
12:00 pm86 °FPartly sunny.7 mph70%29.98 "HgN/A
11:00 am84 °FPartly sunny.6 mph70%29.98 "HgN/A
10:00 am84 °FScattered clouds.9 mph70%29.98 "HgN/A
9:00 am82 °FPassing clouds.7 mph79%29.98 "HgN/A
8:00 am79 °FSunny.5 mph89%29.95 "Hg10 mi
7:00 am77 °FPassing clouds.2 mph94%29.95 "HgN/A
6:00 am75 °FClear.2 mph94%29.95 "Hg10 mi
5:00 am75 °FClear.3 mph89%29.92 "Hg10 mi
4:00 am75 °FClear.3 mph94%29.92 "Hg10 mi
3:00 am77 °FClear.2 mph89%29.92 "Hg10 mi
2:00 am77 °FClear.No wind89%29.92 "Hg10 mi
Weather by CustomWeather, © 2017

See weather overviewHow to use our weather pages